Regional Weather Roundup
Issued by NWS Goodland, KS

Home | Current Version | Previous Version | Text Only | Print | Product List | Glossary On
Versions: 1 2 3 4 5 6 7 8 9 10 11 12 13 14 15 16 17 18 19 20 21 22 23 24 25 26 27 28 29 30 31 32 33 34 35 36 37 38 39 40 41 42 43 44 45 46 47 48 49 50
000
ASUS43 KGLD 230808
RWRGLD

GOODLAND FORECAST AREA HOURLY WEATHER ROUNDUP
NATIONAL WEATHER SERVICE GOODLAND KS
100 AM MST SUN NOV 23 2014

...OFFICIAL OBSERVATIONS...

CITY           SKY/WX    TMP DP  RH WIND       PRES   REMARKS
GOODLAND KS    CLOUDY    40  23  50 W9        29.45F
HILL CITY KS   CLOUDY    51  47  86 CALM      29.47F
IMPERIAL NEB   CLOUDY    44  19  36 NW10      29.52R
MCCOOK NEB     CLOUDY    44  34  67 SW8       29.45F
AKRON CO       CLOUDY    42  21  43 NW12      29.58R
BURLINGTON CO  CLOUDY    45  16  31 NW13      29.48R
LIMON CO       CLOUDY    41  23  48 NW6       29.56S
$$

...UNOFFICIAL OBSERVATIONS...

CITY           SKY/WX    TMP DP  RH WIND       PRES   REMARKS
COLBY KS       PTCLDY    41  32  70 NW7       29.45F
GOVE KS          N/A     48  32  54 MISG        N/A
NORTON KS      CLOUDY    48  43  81 SE3       29.44F
SHARON SPRINGS   N/A     38  26  62 N8G15       N/A
TRIBUNE KS     CLOUDY    39  30  70 SW10      29.44S
TRENTON NEB      N/A     43  32  65 N10         N/A
YUMA CO          N/A     41  19  40 NW7         N/A
$$


USA.gov is the U.S. government's official web portal to all federal, state and local government web resources and services.